Home > Weather > Tsingtao > Past weeks

Flag for China Past Weather in Tsingtao, Shandong, China — Yesterday and Last 2 Weeks

Now
88 °F

Passing clouds.


Feels Like: 85 °F
Forecast: 71 / 83 °F
Wind: 22 mph from North

Location: Qingdao Airport

Current Time: Aug 29, 2016 at 1:47:53 PM

Latest Report: Aug 29, 2016 at 1:00 PM


Visibility: N/A

Pressure: 29.77 "Hg

Humidity: 24%

Dew Point: 46 °F

Location of TsingtaoLocation

Past Weather in Tsingtao — Graph

°F

Tsingtao Temperature Yesterday

Maximum temperature yesterday: 84 °F (at 1:00 PM)
Minimum temperature yesterday: 64 °F (at 1:00 AM)
Average temperature yesterday: 74 °F

High & Low Weather Summary for the Past Weeks

 TemperatureHumidityPressure
High95 °F (Aug 14, 12:00 PM)100% (Aug 14, 5:00 PM)29.92 "Hg (Aug 14, 5:00 PM)
Low61 °F (Aug 27, 4:00 AM)26% (Aug 26, 1:00 PM)29.59 "Hg (Aug 18, 1:00 PM)
Average80 °F68%29.72 "Hg
* Reported Aug 14 12:00 PM — Aug 29 12:00 PM, Tsingtao, Weather by CustomWeather, © 2016

Note: Actual official high and low records may vary slightly from our data, if they occured in-between our weather recording intervals... More about our weather records

Advertising

Tsingtao Weather History for the Previous 24 Hours

Scroll right to see more
 ConditionsComfort  
Time TempWeatherWind HumidityBarometerVisibility
12:00 PM
Mon, Aug 29
84 °FPassing clouds.15 mph33%29.80 "HgN/A
11:00 AM84 °FScattered clouds.15 mph37%29.80 "HgN/A
10:00 AM82 °FPassing clouds.8 mph58%29.83 "HgN/A
9:00 AM79 °FClear.3 mph65%29.83 "Hg4 mi
8:00 AM73 °FClear.1 mph74%29.83 "Hg4 mi
7:00 AM70 °FClear.No wind83%29.86 "Hg4 mi
6:00 AM64 °FSunny.1 mph88%29.83 "Hg10 mi
5:00 AM63 °FClear.1 mph94%29.83 "Hg10 mi
4:00 AM63 °FClear.1 mph88%29.83 "Hg10 mi
3:00 AM64 °FClear.No wind88%29.83 "Hg10 mi
2:00 AM66 °FClear.1 mph73%29.83 "Hg10 mi
1:00 AM70 °FPassing clouds.3 mph69%29.80 "HgN/A
12:00 AM66 °FPassing clouds.3 mph73%29.83 "HgN/A
11:00 PM
Sun, Aug 28
68 °FPassing clouds.3 mph73%29.83 "HgN/A
10:00 PM66 °FClear.6 mph73%29.83 "Hg10 mi
9:00 PM70 °FClear.6 mph64%29.83 "Hg10 mi
8:00 PM75 °FClear.13 mph50%29.83 "Hg10 mi
7:00 PM75 °FClear.13 mph47%29.80 "Hg10 mi
6:00 PM81 °FSunny.15 mph37%29.77 "Hg10 mi
5:00 PM82 °FSunny.15 mph35%29.77 "Hg10 mi
4:00 PM84 °FScattered clouds.15 mph31%29.77 "HgN/A
3:00 PM82 °FScattered clouds.15 mph35%29.74 "HgN/A
2:00 PM84 °FScattered clouds.20 mph35%29.77 "HgN/A
1:00 PM84 °FPartly sunny.13 mph33%29.77 "HgN/A
Weather by CustomWeather, © 2016

See weather overviewHow to use our weather pages